[[{"header":{"parameterUnit":"m.s-1","parameterCategory":1,"la1":30.2991,"la2":30.254,"lo1":-89.0895,"lo2":-89.0444,"dy":0.0017,"dx":0.0017,"nx":28,"ny":28,"refTime":"2023-10-22T21:00:00:Z","depth":0,"parameterNumber":2,"parameterNumberName":"U-component_of_WINDS"},"data":[0,0,0,0,0,0,0,0,0,0,0,0,0,0,0,0,0,0,0,0,0,0,0,0,0,0,0,0,0,0,0,0,0,0,0,0,0,0,0,0,0,0,0,0,0,0,0,0,0,0,0,0,0,0,0,0,0,0,-1.5815,-1.5815,0,-1.5885,-1.5886,-1.5886,-1.5852,-1.585,-1.5849,-1.5847,-1.5917,-1.592,-1.5924,0,0,0,0,0,0,0,0,0,0,0,0,0,-1.5648,-1.5651,-1.5814,-1.5815,-1.5816,-1.5885,-1.5886,-1.5887,-1.5853,-1.585,-1.5848,-1.5846,-1.5915,-1.592,-1.5924,0,0,0,0,0,0,0,0,0,0,0,0,0,-1.5719,-1.5652,-1.5814,-1.5808,-1.5808,-1.5885,-1.5886,-1.5887,-1.5853,-1.585,-1.5848,-1.5845,-1.5914,-1.5919,-1.5924,-1.6011,0,0,-1.5941,-1.5943,0,0,0,0,0,0,0,0,-1.5715,-1.5726,-1.5808,-1.5808,-1.5808,-1.5857,-1.5852,-1.5929,-1.5854,-1.5836,-1.5847,-1.5844,-1.5899,-1.5905,-1.5924,-1.6015,-1.6018,-1.5941,-1.5944,-1.5947,-1.5948,0,0,0,0,0,0,0,-1.5711,-1.5722,-1.5842,-1.5809,-1.5809,-1.58,-1.5807,-1.5867,-1.5881,-1.5837,-1.5835,-1.5844,-1.5898,-1.5919,-1.5926,-1.6019,-1.5941,-1.5946,-1.5949,-1.5951,-1.6183,-1.6186,0,0,0,0,0,0,-1.5706,-1.5718,-1.584,-1.5844,-1.5754,-1.5805,-1.5813,-1.5844,-1.5881,-1.5884,-1.5846,-1.5842,-1.5911,-1.5919,-1.5928,-1.6032,-1.5947,-1.5952,-1.5955,-1.618,-1.6183,-1.6187,0,0,0,0,0,0,-1.5703,-1.5717,-1.5837,-1.5781,-1.5795,-1.5811,-1.5846,-1.5847,-1.5868,-1.5888,-1.589,-1.5865,-1.591,-1.592,-1.5991,-1.6034,-1.5954,-1.5959,-1.6176,-1.6181,-1.6185,-1.624,0,0,0,0,0,0,-1.5698,-1.5716,-1.575,-1.5782,-1.5799,-1.59,-1.5849,-1.585,-1.5877,-1.5873,-1.5906,-1.5908,-1.5908,-1.5983,-1.5996,-1.6039,-1.5963,-1.6173,-1.6178,-1.6184,-1.6234,-1.6246,-1.6256,0,0,0,0,0,-1.5692,-1.5763,-1.5752,-1.5767,-1.5841,-1.5903,-1.5912,-1.5911,-1.5881,-1.5915,-1.5927,-1.5907,-1.6027,-1.5991,-1.6005,-1.6051,-1.617,-1.6177,-1.6183,-1.623,-1.6244,-1.6255,0,0,0,0,0,0,-1.5735,-1.5767,-1.5755,-1.5838,-1.5868,-1.5897,-1.5939,-1.5926,-1.5964,-1.5958,-1.5955,-1.5962,-1.6035,-1.605,-1.6009,-1.6136,-1.6094,-1.6103,-1.6124,-1.6137,-1.6148,-1.6142,-1.5967,0,0,0,0,0,-1.5754,-1.5802,-1.5827,-1.5897,-1.5913,-1.5924,-1.595,-1.5947,-1.5977,-1.5989,-1.6007,-1.6037,-1.6081,-1.611,-1.6152,-1.6236,-1.6243,-1.6275,-1.6285,-1.6294,-1.6302,-1.6347,-1.6362,-1.6209,-1.6209,-1.6208,0,0,-1.5794,-1.5817,-1.5847,-1.5906,-1.5929,-1.5978,-1.5934,-1.5988,-1.6024,-1.5997,-1.6065,-1.6079,-1.6112,-1.619,-1.6225,-1.6204,-1.6346,-1.6302,-1.6309,-1.6313,-1.6356,-1.637,-1.6383,-1.6213,-1.6212,-1.6212,0,0,-1.5891,-1.5914,-1.5975,-1.5999,-1.6034,-1.604,-1.6055,-1.6086,-1.6094,-1.6162,-1.6143,-1.6185,-1.6262,-1.6286,-1.6308,-1.6414,-1.6396,-1.6427,-1.6482,-1.6526,-1.6538,-1.6549,-1.6586,-1.6599,-1.6436,-1.6436,-1.6436,0,-1.5936,-1.6009,-1.6008,-1.6063,-1.6089,-1.6068,-1.6129,-1.6152,-1.6199,-1.6217,-1.6193,-1.6288,-1.6308,-1.6391,-1.6417,-1.6436,-1.6452,-1.6423,-1.6537,-1.6547,-1.6557,-1.6592,-1.6607,-1.6439,-1.6439,-1.6438,-1.6438,0,-1.6062,-1.6113,-1.6158,-1.6205,-1.6236,-1.6294,-1.63,-1.6332,-1.6326,-1.6334,-1.6403,-1.6427,-1.6473,-1.6492,-1.6487,-1.6574,-1.656,-1.6537,-1.6494,-1.6575,-1.6608,-1.6622,-1.6444,-1.6443,-1.6442,-1.6441,0,0,-1.6188,-1.6233,-1.6249,-1.627,-1.6307,-1.6346,-1.6403,-1.6448,-1.6475,-1.6508,-1.6554,-1.6619,-1.6598,-1.6623,-1.6619,-1.6658,-1.674,-1.663,-1.663,-1.6649,-1.6836,-1.6854,-1.6869,-1.6729,-1.6731,-1.6733,-1.6833,0,-1.6288,-1.6388,-1.6388,-1.6479,-1.6526,-1.6507,-1.6556,-1.6583,-1.6593,-1.6633,-1.6643,-1.6689,-1.6657,-1.6672,-1.671,-1.6722,-1.6777,-1.6715,-1.6771,-1.6773,-1.6763,-1.6887,-1.6905,-1.6999,-1.6846,-1.6849,-1.685,0,-1.6417,-1.6455,-1.6552,-1.6581,-1.6601,-1.6645,-1.6687,-1.6726,-1.6756,-1.676,-1.6788,-1.6779,-1.6835,-1.6791,-1.6868,-1.6825,-1.6848,-1.6858,-1.6861,-1.6866,-1.6816,-1.6894,-1.7028,-1.7042,-1.6871,-1.6869,-1.6868,0,-1.6499,-1.6574,-1.6641,-1.6659,-1.6696,-1.6727,-1.6744,-1.6772,-1.6799,-1.6835,-1.6852,-1.6894,-1.6916,-1.6948,-1.695,-1.6918,-1.7027,-1.6983,-1.7032,-1.7032,-1.7055,-1.7054,-1.7194,-1.7071,-1.7071,-1.7071,-1.707,0,-1.661,-1.667,-1.6678,-1.672,-1.6785,-1.6784,-1.6849,-1.6863,-1.6888,-1.6931,-1.6916,-1.6956,-1.6957,-1.6997,-1.6999,-1.7062,-1.7072,-1.7076,-1.7076,-1.7078,-1.7077,-1.7092,-1.7085,-1.7074,-1.7073,-1.7073,-1.7072,0,-1.6712,-1.672,-1.6792,-1.6821,-1.683,-1.6877,-1.6901,-1.694,-1.6948,-1.7003,-1.7015,-1.7028,-1.7075,-1.708,-1.7135,-1.7136,-1.7211,-1.7204,-1.7202,-1.72,-1.7248,-1.7243,-1.7403,-1.7423,-1.7287,-1.7288,-1.729,0,-1.6782,-1.6828,-1.6862,-1.689,-1.6908,-1.6954,-1.6981,-1.6982,-1.7011,-1.7049,-1.7083,-1.7129,-1.7166,-1.7242,-1.7255,-1.7296,-1.729,-1.7343,-1.7296,-1.7296,-1.729,-1.7287,-1.7291,-1.7352,-1.7353,-1.7355,-1.7356,0,-1.6906,-1.6907,-1.6948,-1.6991,-1.7025,-1.7058,-1.7089,-1.7113,-1.7117,-1.715,-1.7199,-1.7228,-1.7284,-1.7329,-1.737,-1.7385,-1.7371,-1.737,-1.7383,-1.7385,-1.7382,-1.7383,-1.7226,-1.7367,-1.7365,-1.7365,-1.7364,-1.7364,-1.6994,-1.7033,-1.7063,-1.7109,-1.7132,-1.7162,-1.72,-1.7213,-1.7254,-1.73,-1.7297,-1.735,-1.7378,-1.7432,-1.7451,-1.7491,-1.7473,-1.7493,-1.7498,-1.7502,-1.7507,-1.7376,-1.7499,-1.7498,-1.7498,-1.7498,-1.7498,0,-1.7116,-1.7134,-1.7176,-1.7221,-1.7257,-1.7241,-1.7274,-1.7305,-1.7353,-1.7381,-1.7417,-1.7472,-1.7516,-1.7533,-1.7575,-1.7605,-1.7599,-1.7616,-1.7613,-1.7617,-1.7521,-1.7505,-1.7619,-1.7619,-1.7619,-1.7619,-1.7619,-1.7619,-1.7183,-1.7249,-1.7254,-1.7331,-1.7348,-1.7401,-1.7421,-1.7448,-1.747,-1.7533,-1.7569,-1.758,-1.7603,-1.7647,-1.7686,-1.769,-1.7706,-1.7725,-1.7726,-1.7636,-1.7624,-1.7612,-1.7597,-1.7729,-1.7729,-1.7819,-1.782,-1.782]},{"header":{"parameterUnit":"m.s-1","parameterCategory":1,"la1":30.2991,"la2":30.254,"lo1":-89.0895,"lo2":-89.0444,"dy":0.0017,"dx":0.0017,"nx":28,"ny":28,"refTime":"2023-10-22T21:00:00:Z","depth":0,"parameterNumber":3,"parameterNumberName":"V-component_of_WINDS"},"data":[0,0,0,0,0,0,0,0,0,0,0,0,0,0,0,0,0,0,0,0,0,0,0,0,0,0,0,0,0,0,0,0,0,0,0,0,0,0,0,0,0,0,0,0,0,0,0,0,0,0,0,0,0,0,0,0,0,0,-1.2005,-1.2005,0,-1.203,-1.203,-1.2031,-1.2006,-1.2005,-1.2004,-1.2003,-1.2029,-1.203,-1.2032,0,0,0,0,0,0,0,0,0,0,0,0,0,-1.1935,-1.1936,-1.2005,-1.2005,-1.2006,-1.203,-1.203,-1.2031,-1.2006,-1.2005,-1.2004,-1.2003,-1.2028,-1.203,-1.2032,0,0,0,0,0,0,0,0,0,0,0,0,0,-1.1963,-1.1937,-1.2005,-1.1996,-1.1996,-1.203,-1.203,-1.2031,-1.2006,-1.2005,-1.2003,-1.2002,-1.2028,-1.203,-1.2032,-1.2076,0,0,-1.204,-1.2041,0,0,0,0,0,0,0,0,-1.1962,-1.1966,-1.1997,-1.1997,-1.1996,-1.2013,-1.2015,-1.2046,-1.2007,-1.2002,-1.2003,-1.2001,-1.2025,-1.2027,-1.2035,-1.2078,-1.2079,-1.204,-1.2041,-1.2042,-1.2043,0,0,0,0,0,0,0,-1.196,-1.1965,-1.2015,-1.1998,-1.1997,-1.1991,-1.1993,-1.2021,-1.2022,-1.2003,-1.2001,-1.2004,-1.2024,-1.2033,-1.2036,-1.2079,-1.204,-1.2042,-1.2043,-1.2044,-1.2157,-1.2159,0,0,0,0,0,0,-1.1959,-1.1963,-1.2014,-1.2016,-1.1975,-1.1993,-1.1996,-1.2009,-1.2021,-1.2022,-1.2005,-1.2003,-1.203,-1.2033,-1.2037,-1.2088,-1.2042,-1.2045,-1.2046,-1.2156,-1.2158,-1.2159,0,0,0,0,0,0,-1.1957,-1.1964,-1.2013,-1.1989,-1.1995,-1.1996,-1.2011,-1.2011,-1.2019,-1.2023,-1.2023,-1.2014,-1.2029,-1.2033,-1.2066,-1.2089,-1.2046,-1.2048,-1.2154,-1.2156,-1.2159,-1.2193,0,0,0,0,0,0,-1.1955,-1.1963,-1.198,-1.1989,-1.1996,-1.2043,-1.2013,-1.2012,-1.2024,-1.2021,-1.2032,-1.2032,-1.2028,-1.2063,-1.2069,-1.2091,-1.205,-1.2152,-1.2155,-1.2158,-1.2189,-1.2196,-1.2201,0,0,0,0,0,-1.1953,-1.1989,-1.1981,-1.1988,-1.2018,-1.2044,-1.2048,-1.2043,-1.2026,-1.2042,-1.2045,-1.2032,-1.2085,-1.2067,-1.2073,-1.2097,-1.2151,-1.2154,-1.2158,-1.2187,-1.2194,-1.2201,0,0,0,0,0,0,-1.1983,-1.199,-1.1982,-1.2022,-1.2033,-1.204,-1.2062,-1.2051,-1.2067,-1.2064,-1.2056,-1.2059,-1.2094,-1.2098,-1.2077,-1.2139,-1.2115,-1.212,-1.2135,-1.2142,-1.2148,-1.2147,-1.2052,0,0,0,0,0,-1.1994,-1.2015,-1.2021,-1.2055,-1.2061,-1.206,-1.2072,-1.2067,-1.2078,-1.2082,-1.2087,-1.2098,-1.2117,-1.213,-1.2148,-1.219,-1.2191,-1.2209,-1.2215,-1.2219,-1.2224,-1.2246,-1.2253,-1.2171,-1.2171,-1.2171,0,0,-1.2018,-1.2024,-1.2038,-1.2062,-1.2069,-1.2091,-1.2065,-1.2089,-1.2105,-1.2086,-1.2117,-1.2121,-1.2133,-1.217,-1.2187,-1.2175,-1.2247,-1.2224,-1.2228,-1.223,-1.225,-1.2258,-1.2265,-1.2173,-1.2173,-1.2173,0,0,-1.2072,-1.2079,-1.2109,-1.2117,-1.2128,-1.2127,-1.2134,-1.2143,-1.2145,-1.2176,-1.2162,-1.2181,-1.2214,-1.2223,-1.2231,-1.2287,-1.2276,-1.2293,-1.2324,-1.2345,-1.2352,-1.2357,-1.2377,-1.2384,-1.2297,-1.2298,-1.2298,0,-1.21,-1.2133,-1.2125,-1.2151,-1.2161,-1.2144,-1.2173,-1.2181,-1.2198,-1.2206,-1.2192,-1.2233,-1.224,-1.2278,-1.2292,-1.23,-1.2307,-1.2292,-1.2351,-1.2357,-1.2362,-1.2381,-1.2388,-1.23,-1.2299,-1.2299,-1.2299,0,-1.2166,-1.2189,-1.2211,-1.2227,-1.224,-1.2268,-1.2264,-1.2278,-1.2271,-1.2271,-1.2303,-1.231,-1.2328,-1.2337,-1.2331,-1.2375,-1.2367,-1.2352,-1.2328,-1.2372,-1.239,-1.2397,-1.2303,-1.2302,-1.2301,-1.2301,0,0,-1.2241,-1.2252,-1.2261,-1.2267,-1.2278,-1.2296,-1.2321,-1.2339,-1.2351,-1.2363,-1.2384,-1.2412,-1.2399,-1.2408,-1.2403,-1.2421,-1.2464,-1.2404,-1.2404,-1.2415,-1.2513,-1.2524,-1.2532,-1.2456,-1.2458,-1.2459,-1.2512,0,-1.2295,-1.2341,-1.2334,-1.2378,-1.2398,-1.2381,-1.2404,-1.2413,-1.2413,-1.243,-1.2431,-1.245,-1.2431,-1.2437,-1.2454,-1.2456,-1.2484,-1.2452,-1.2476,-1.2477,-1.2474,-1.2541,-1.2553,-1.2603,-1.2518,-1.2519,-1.252,0,-1.2365,-1.2379,-1.2425,-1.2431,-1.244,-1.246,-1.2475,-1.2492,-1.2501,-1.25,-1.2511,-1.2501,-1.2527,-1.2501,-1.2536,-1.2514,-1.2523,-1.2525,-1.2527,-1.253,-1.2502,-1.2546,-1.2619,-1.2626,-1.2531,-1.253,-1.2529,0,-1.2415,-1.2445,-1.2476,-1.2483,-1.2491,-1.2506,-1.251,-1.2518,-1.2529,-1.2542,-1.2549,-1.2565,-1.2574,-1.2586,-1.2581,-1.2563,-1.2616,-1.2591,-1.2616,-1.2616,-1.2629,-1.2628,-1.2704,-1.2634,-1.2634,-1.2634,-1.2634,0,-1.2477,-1.2506,-1.2499,-1.2518,-1.2549,-1.254,-1.2571,-1.2573,-1.258,-1.2599,-1.2585,-1.2603,-1.2595,-1.2612,-1.2608,-1.2637,-1.2641,-1.2641,-1.264,-1.2642,-1.2642,-1.2649,-1.2645,-1.2636,-1.2635,-1.2635,-1.2635,0,-1.2539,-1.2535,-1.2568,-1.2573,-1.2575,-1.2597,-1.2601,-1.2619,-1.2618,-1.2642,-1.2647,-1.2645,-1.2664,-1.266,-1.2681,-1.2679,-1.2715,-1.2709,-1.2712,-1.2711,-1.2736,-1.2734,-1.2819,-1.283,-1.2753,-1.2754,-1.2754,0,-1.2579,-1.26,-1.2607,-1.2618,-1.2624,-1.2642,-1.2653,-1.2645,-1.2657,-1.2668,-1.2684,-1.2702,-1.2716,-1.2748,-1.2748,-1.2764,-1.2759,-1.2787,-1.2761,-1.2763,-1.2759,-1.2758,-1.276,-1.2793,-1.2794,-1.2795,-1.2795,0,-1.265,-1.2646,-1.2662,-1.2678,-1.269,-1.2702,-1.2712,-1.2722,-1.2715,-1.2729,-1.2748,-1.2759,-1.278,-1.2798,-1.2812,-1.2816,-1.2805,-1.2803,-1.281,-1.2813,-1.2814,-1.2814,-1.2726,-1.2802,-1.2801,-1.2801,-1.28,-1.28,-1.2702,-1.2719,-1.2727,-1.2745,-1.2751,-1.2761,-1.2777,-1.2778,-1.2794,-1.281,-1.2804,-1.2826,-1.2834,-1.2852,-1.2857,-1.2874,-1.2863,-1.2873,-1.2876,-1.2878,-1.2881,-1.2811,-1.2877,-1.2877,-1.2876,-1.2876,-1.2876,0,-1.2772,-1.2775,-1.2792,-1.2806,-1.282,-1.2807,-1.2817,-1.283,-1.2849,-1.2857,-1.2871,-1.2892,-1.2909,-1.291,-1.2926,-1.2939,-1.2934,-1.2944,-1.2943,-1.2944,-1.289,-1.2883,-1.2947,-1.2947,-1.2947,-1.2947,-1.2947,-1.2947,-1.281,-1.2839,-1.2837,-1.2869,-1.2872,-1.2893,-1.29,-1.2909,-1.2915,-1.2939,-1.2953,-1.2954,-1.2959,-1.2974,-1.2989,-1.2989,-1.2995,-1.3007,-1.3005,-1.2955,-1.2948,-1.2941,-1.2934,-1.3008,-1.3008,-1.3057,-1.3057,-1.3058]}]]